EW1976 Weather Reports


time (UTC)temp
C
wind
direction
speed
KPH
gust
KPH
rain 1hr
cm
rain 24hr
cm
rain mn
cm
humidity
%
barometer
mb
20260504190010 22 268 3.2 11.3 0.00 0.00 0.00 62 1010.8
20260504184512 22 279 6.4 12.9 0.00 0.00 0.00 62 1010.9
20260504183007 22 245 1.6 11.3 0.00 0.00 0.00 63 1010.9
20260504181506 22 278 1.6 11.3 0.00 0.00 0.00 64 1010.9
20260504180005 22 303 1.6 8.0 0.00 0.00 0.00 63 1010.9
20260504174504 22 271 0.0 8.0 0.00 0.00 0.00 62 1010.9
20260504173004 22 286 1.6 6.4 0.00 0.00 0.00 55 1010.9
20260504171502 22 35 0.0 3.2 0.00 0.00 0.00 55 1011.1
20260504170109 22 318 1.6 4.8 0.00 0.00 0.00 59 1011.0
20260504081553 10 203 0.0 0.0 0.00 0.00 0.00 92 1010.1
20260504044546 14 203 0.0 0.0 0.00 0.00 0.00 82 1010.0
20260504043039 14 203 0.0 0.0 0.00 0.00 0.00 81 1010.1
20260504041537 15 203 0.0 0.0 0.00 0.00 0.00 79 1010.1
20260504040039 16 203 0.0 0.0 0.00 0.00 0.00 77 1010.0
20260504034553 17 202 0.0 0.0 0.00 0.00 0.00 75 1010.0
20260504033039 18 204 0.0 0.0 0.00 0.00 0.00 71 1010.0
20260504031534 20 204 0.0 1.6 0.00 0.00 0.00 69 1010.0
20260504030042 22 207 0.0 1.6 0.00 0.00 0.00 65 1010.0
20260504024532 23 216 0.0 1.6 0.00 0.00 0.00 63 1010.0
20260504023033 23 233 0.0 3.2 0.00 0.00 0.00 56 1009.9
20260504021530 24 248 0.0 3.2 0.00 0.00 0.00 54 1010.0
20260504020028 24 262 0.0 4.8 0.00 0.00 0.00 54 1010.1
20260504014536 24 288 3.2 4.8 0.00 0.00 0.00 53 1010.4
20260504013026 25 266 0.0 6.4 0.00 0.00 0.00 53 1010.4
20260504011527 25 259 1.6 4.8 0.00 0.00 0.00 50 1010.5
20260504010023 25 274 1.6 9.7 0.00 0.00 0.00 48 1010.7
20260504004521 25 221 1.6 6.4 0.00 0.00 0.00 50 1011.0
20260504003028 25 229 1.6 9.7 0.00 0.00 0.00 47 1011.1
20260504001519 25 264 1.6 11.3 0.00 0.00 0.00 49 1011.1
20260504000016 25 274 3.2 9.7 0.00 0.00 0.00 47 1011.3
20260503234529 25 286 4.8 11.3 0.00 0.00 0.00 42 1011.4
20260503233013 25 293 3.2 11.3 0.00 0.00 0.00 48 1011.6
20260503231513 24 304 0.0 9.7 0.00 0.00 0.00 51 1011.8
20260503230011 24 269 4.8 11.3 0.00 0.00 0.00 53 1012.0
20260503224506 24 308 1.6 11.3 0.00 0.00 0.00 54 1012.2
20260503223004 23 236 6.4 12.9 0.00 0.00 0.00 56 1012.4
20260503221504 23 276 4.8 12.9 0.00 0.00 0.00 57 1012.7
20260503220101 23 234 3.2 8.0 0.00 0.00 0.00 56 1012.7
20260503220000 23 208 3.2 8.0 0.00 0.00 0.00 57 1012.7
20260503214601 23 243 6.4 12.9 0.00 0.00 0.00 56 1012.9
20260503213107 23 285 4.8 12.9 0.00 0.00 0.00 53 1013.0
20260503211555 23 271 6.4 12.9 0.00 0.00 0.00 49 1013.2
20260503210100 23 280 4.8 11.3 0.00 0.00 0.00 49 1013.3
20260503204554 23 286 3.2 9.7 0.00 0.00 0.00 52 1013.5
20260503203049 22 216 1.6 11.3 0.00 0.00 0.00 55 1013.6
20260503201546 22 287 3.2 14.5 0.00 0.00 0.00 54 1013.9
20260503200049 21 264 6.4 14.5 0.00 0.00 0.00 59 1014.2
20260503194546 21 264 1.6 14.5 0.00 0.00 0.00 59 1014.3
20260503193050 21 249 4.8 14.5 0.00 0.00 0.00 62 1014.3
20260503191543 22 278 6.4 16.1 0.00 0.00 0.00 62 1014.3